Wetterverlauf

Letzte Wetterlage 25.10.2014 17:35
Wetterdiagramm
Tabellarische Darstellung
Datum Temperatur Windchill Feuchte Luftdruck Windrichtung Windstärke Niederschlag
25.10.2014 17:55 14,0 °C 14,0 °C 91 % 1021,0 hPa 180 0.3 0,00 mm
25.10.2014 17:45 14,1 °C 14,1 °C 90 % 1020,8 hPa 180 1.7 0,00 mm
25.10.2014 17:35 14,2 °C 14,2 °C 90 % 1020,8 hPa 225 0.7 0,00 mm
25.10.2014 17:25 14,3 °C 14,3 °C 90 % 1020,8 hPa 180 0.0 0,00 mm
25.10.2014 17:15 14,3 °C 14,3 °C 90 % 1020,8 hPa 180 0.3 0,00 mm
25.10.2014 17:05 14,4 °C 14,4 °C 90 % 1020,6 hPa 135 0.7 0,00 mm
25.10.2014 16:55 14,4 °C 14,4 °C 90 % 1020,6 hPa 135 0.3 0,00 mm
25.10.2014 16:45 14,5 °C 14,5 °C 90 % 1020,6 hPa 135 0.7 0,00 mm
25.10.2014 16:35 14,5 °C 14,5 °C 90 % 1020,6 hPa 180 0.3 0,00 mm
25.10.2014 16:25 14,5 °C 14,5 °C 90 % 1020,5 hPa 180 1.0 0,00 mm
25.10.2014 16:15 14,6 °C 14,6 °C 90 % 1020,4 hPa 225 0.0 0,00 mm
25.10.2014 16:05 14,7 °C 14,7 °C 90 % 1020,4 hPa 90 1.4 0,00 mm
25.10.2014 15:55 14,6 °C 14,6 °C 90 % 1020,4 hPa 180 0.7 0,00 mm
25.10.2014 15:45 14,6 °C 14,6 °C 90 % 1020,5 hPa 135 1.0 0,00 mm
25.10.2014 15:35 14,7 °C 14,7 °C 90 % 1020,3 hPa 135 0.3 0,00 mm
25.10.2014 15:25 14,8 °C 14,8 °C 91 % 1020,3 hPa 180 1.4 0,00 mm
25.10.2014 15:15 14,8 °C 14,8 °C 91 % 1020,4 hPa 270 0.0 0,00 mm
25.10.2014 15:05 14,8 °C 14,8 °C 91 % 1020,2 hPa 315 0.3 0,00 mm
25.10.2014 14:55 14,8 °C 14,8 °C 92 % 1020,2 hPa 90 0.3 0,00 mm
25.10.2014 14:45 14,7 °C 14,7 °C 92 % 1020,3 hPa 45 0.0 0,00 mm
25.10.2014 14:35 14,6 °C 14,6 °C 92 % 1020,5 hPa 180 0.3 0,00 mm
25.10.2014 14:25 14,3 °C 14,3 °C 92 % 1020,3 hPa 90 0.0 0,00 mm
25.10.2014 14:15 14,2 °C 14,2 °C 92 % 1020,3 hPa 225 0.0 0,00 mm
25.10.2014 14:05 14,1 °C 14,1 °C 92 % 1020,4 hPa 270 0.0 0,00 mm
25.10.2014 13:55 14,1 °C 14,1 °C 92 % 1020,2 hPa 225 0.3 0,00 mm
Empfehlen Sie wetter.com
| Mehr
Neue Wetterwarnung

Neue Niederschlagsmeldung
Neue Meldung
Regen Liveticker
    sehr starker Regen/Gewitter
    starker Regen/Gewitter
    mäßiger bis starker Regen
    mäßiger Regen
    leichter bis mäßiger Regen
    kein Regen